Tracking 23446 objects as of 20-Jun-2021
HD Live streaming from Space Station
objects crossing your sky now

STARLINK-2513

Track STARLINK-2513 now!
10-day predictions
STARLINK-2513 is classified as:


NORAD ID: 48317
Int'l Code: 2021-036AT
Perigee: 432.1 km
Apogee: 433.9 km
Inclination: 53.1 °
Period: 93.1 minutes
Semi major axis: 6804 km
RCS: Unknown
Launch date: April 29, 2021
Source: United States (US)
Launch site: AIR FORCE EASTERN TEST RANGE (AFETR)
aabbcc
Your satellite tracking list
Your tracking list is empty




NASA's NSSDC Master Catalog

Two Line Element Set (TLE):
1 48317U 21036AT  21171.50001157 -.01078692  00000-0 -23314-1 0  9995
2 48317  53.0520 269.9147 0001351  48.8725 272.1835 15.46874865  9058
Source of the keplerian elements: AFSPC